Theta_e
325 325 325 325 325 324 323 323 322 321 322 320 319 319 314 311 313 314 315 313 311 309 309 308 307 306 305 305 305 306 306 307 307 308 308 308 309 309 307 306 306 307 308 308 308 307 307 308 308 309 308 308 308 308 308 307 307 305 304 302 301 300 299 299 299 299 299 298 299 299 299 299 299 299
324 324 325 325 325 324 323 323 322 321 321 319 317 316 313 312 311 311 313 313 310 310 309 308 308 307 306 306 306 307 307 307 308 308 309 309 309 308 307 307 307 308 309 309 309 308 308 309 309 310 310 310 309 309 309 309 308 307 305 303 301 300 299 299 299 299 299 298 298 298 298 298 298 298
323 323 324 324 324 324 323 323 323 321 320 317 314 313 313 312 309 308 312 313 311 310 310 309 309 308 308 307 307 308 308 308 308 309 309 309 309 308 308 308 309 309 309 309 309 309 308 309 310 310 310 310 310 310 309 309 309 308 306 303 301 300 299 299 299 299 298 298 298 298 298 298 298 298
322 322 322 323 323 323 322 323 323 321 318 314 312 313 312 311 309 308 311 313 311 309 309 309 309 309 309 308 308 308 308 308 308 308 309 309 309 308 308 308 309 309 310 310 310 309 309 310 310 310 310 311 310 310 310 310 309 308 306 304 301 300 299 299 299 298 298 298 298 298 298 298 297 297
318 317 318 319 321 322 322 322 321 320 317 313 311 312 312 311 311 309 310 312 312 309 309 310 310 309 309 309 308 308 308 308 308 308 309 308 308 308 308 308 309 309 310 310 310 309 309 310 310 310 311 311 311 310 310 310 309 308 306 304 302 300 299 299 298 298 298 298 298 298 297 297 297 297
315 315 315 315 317 320 322 322 321 320 317 313 312 313 312 311 311 311 311 311 311 310 309 310 310 310 310 309 309 309 308 308 308 308 308 308 308 308 308 308 309 309 310 310 310 310 310 310 310 310 310 310 310 310 310 310 309 308 307 304 302 300 299 299 298 298 298 297 297 297 297 297 297 296
316 316 316 315 315 316 318 320 320 320 319 317 315 314 313 312 312 312 312 312 311 310 309 310 310 311 310 309 309 309 309 308 308 308 308 308 308 308 309 309 308 309 309 310 310 310 310 310 310 310 310 310 310 310 310 309 309 308 307 304 302 300 299 298 298 297 297 297 297 297 297 297 296 296
315 316 316 317 316 316 316 317 318 320 320 320 318 317 315 314 314 314 313 313 312 311 310 309 310 311 311 310 309 309 309 309 309 308 309 309 308 308 309 309 309 309 309 310 310 310 310 310 310 310 310 310 310 310 309 309 309 308 307 304 302 300 298 298 297 297 297 297 297 297 296 296 296 296
316 317 316 316 316 316 315 316 317 319 320 320 320 319 317 315 315 314 314 313 313 312 311 310 310 311 311 310 309 309 309 309 309 309 309 309 309 309 309 309 309 309 309 310 310 310 310 310 310 310 310 310 310 310 309 309 309 308 306 304 301 299 298 298 297 297 296 296 296 296 296 296 296 296
316 315 314 314 314 315 315 315 315 316 318 319 318 317 316 315 314 314 314 314 314 313 312 311 310 311 312 311 310 309 309 309 309 309 309 309 309 309 309 309 309 309 309 310 310 310 310 310 310 310 310 310 310 309 309 308 308 308 306 303 300 299 298 297 297 296 296 296 296 296 297 297 297 297
312 311 312 313 314 314 314 314 314 314 315 315 315 314 314 314 313 313 314 314 314 313 313 312 310 311 313 313 311 309 309 309 309 309 309 309 310 310 309 309 309 310 310 310 310 310 310 310 310 310 310 310 309 309 308 308 308 307 304 301 299 298 297 297 296 296 296 296 296 297 297 297 297 297
310 309 310 313 314 314 314 314 314 314 313 313 313 313 313 313 313 313 314 314 314 313 313 312 310 311 313 314 312 311 310 309 310 310 310 310 311 311 310 309 309 309 310 310 310 310 310 310 310 310 310 310 309 308 308 308 307 305 302 300 298 297 297 296 296 296 296 296 297 297 297 297 297 297
312 311 310 312 312 312 313 312 312 312 312 313 313 313 313 314 313 314 314 314 314 314 313 313 312 313 314 314 314 313 312 311 311 312 311 311 311 311 311 310 310 310 309 309 310 310 310 310 310 310 310 309 309 308 308 308 306 303 300 298 297 297 296 296 296 296 296 296 297 297 297 297 298 298
312 313 313 312 312 312 312 312 312 312 312 312 312 311 312 312 313 313 314 314 314 314 314 314 314 314 314 314 314 314 313 313 312 312 312 311 311 312 311 311 312 311 310 310 310 310 310 310 309 309 309 309 308 308 308 307 305 301 299 298 297 296 296 296 296 296 296 296 297 297 297 298 298 298
312 313 313 313 313 313 313 313 313 312 311 311 310 310 311 311 311 312 313 313 314 314 314 314 314 314 314 314 314 314 313 313 313 312 312 311 311 311 311 312 312 312 312 311 310 310 310 310 309 309 308 308 307 307 307 305 302 299 298 297 296 296 296 296 296 296 296 297 297 297 298 298 298 298
313 313 313 313 312 313 313 313 312 311 311 311 311 311 311 311 312 313 314 314 314 314 314 314 314 314 314 314 314 314 314 314 313 313 313 312 311 311 311 311 312 313 313 312 311 310 310 310 309 308 308 307 307 307 305 302 299 298 297 296 296 295 296 296 296 296 297 297 297 298 298 298 298 299
312 312 312 312 312 312 312 312 312 312 312 312 312 312 312 312 312 312 313 314 315 315 315 315 316 316 315 315 315 314 314 314 314 314 314 313 312 311 310 310 311 313 313 311 310 310 310 309 308 307 307 307 307 306 303 300 298 297 296 296 295 296 296 296 296 296 297 297 297 298 298 298 298 298
312 312 312 312 312 313 313 313 313 313 313 313 313 313 313 313 313 313 314 314 315 315 316 316 316 317 317 317 317 316 316 315 315 314 314 314 313 312 311 312 312 313 312 311 310 309 309 309 308 307 308 308 306 304 300 298 298 297 296 295 295 296 296 296 296 296 297 297 297 297 298 298 298 298
314 314 313 313 313 313 314 314 314 314 314 314 314 314 314 314 314 314 314 315 315 316 316 316 317 317 317 317 317 317 317 316 316 315 314 314 314 313 312 312 312 312 311 311 310 308 308 309 307 306 307 306 303 300 299 298 297 296 295 295 295 295 296 296 296 296 296 297 297 297 297 297 297 297
316 316 316 315 315 315 315 314 314 314 314 314 314 314 315 315 315 315 315 315 315 316 316 317 317 317 317 318 317 317 317 317 316 316 315 315 315 314 312 312 312 312 312 311 310 308 308 308 307 306 306 303 300 298 298 297 296 295 295 295 295 295 295 296 296 296 296 296 297 297 297 297 296 296
318 318 318 318 317 317 317 317 316 316 316 315 315 315 315 315 315 315 315 316 316 316 316 317 317 317 317 318 317 317 317 317 317 316 316 316 315 313 312 312 312 312 312 311 310 308 307 308 307 305 303 300 299 298 297 296 295 295 295 295 295 295 295 296 296 296 296 296 297 296 296 296 296 296
319 319 319 319 319 318 318 318 318 318 318 318 317 317 317 316 316 316 316 316 315 316 316 316 317 317 317 317 317 317 317 317 316 316 316 315 313 312 311 311 312 312 311 310 309 307 307 307 306 303 300 299 298 297 296 295 295 295 295 295 295 295 295 295 296 296 296 296 296 296 296 295 295 295
317 317 318 318 318 318 319 319 319 319 318 319 319 318 318 318 318 317 317 316 316 316 316 317 317 317 317 317 316 316 316 316 316 316 315 314 312 311 311 312 312 311 310 310 309 307 306 305 303 300 298 298 297 296 295 295 295 295 295 295 295 295 296 295 295 296 296 296 296 296 295 295 295 295
312 313 313 313 314 315 316 316 317 317 318 318 318 318 318 318 318 318 317 317 317 317 317 317 317 317 316 316 316 315 315 315 315 315 314 312 311 310 310 311 311 309 309 309 308 305 303 301 299 298 298 296 296 295 295 295 295 294 295 295 295 295 295 295 295 296 296 296 296 296 295 295 295 295
307 307 308 308 309 309 310 311 312 314 315 316 317 317 317 317 317 316 317 316 316 317 317 317 316 316 316 316 316 315 315 314 314 313 313 312 310 309 309 309 309 308 308 307 305 302 300 299 298 298 296 295 295 295 295 295 295 295 295 295 295 295 295 295 295 295 296 296 296 295 295 295 295 295
304 304 304 305 305 305 306 306 307 308 310 312 313 314 315 315 315 315 315 315 315 315 315 315 315 315 315 315 315 315 314 314 313 312 311 310 309 309 308 308 308 307 305 304 302 300 299 298 297 296 295 295 294 294 295 295 295 295 295 295 295 295 295 295 295 295 296 296 295 295 295 295 295 295
303 303 303 302 302 303 303 303 304 304 305 306 308 310 311 312 313 313 313 313 314 314 313 313 313 314 314 315 315 315 314 313 312 311 310 309 308 308 308 307 306 304 302 301 299 298 298 297 296 295 294 294 294 294 295 295 295 295 295 295 295 295 295 295 295 295 295 295 295 295 295 295 294 294
300 300 300 300 300 300 300 301 301 301 301 302 303 304 305 307 308 310 311 311 312 312 312 311 311 311 313 314 315 315 314 313 312 311 309 308 308 307 307 305 303 301 300 299 298 298 297 296 295 295 294 294 294 294 294 294 295 295 295 295 295 295 294 294 294 294 295 295 295 294 294 294 294 294
299 299 299 299 299 299 299 299 299 299 299 299 299 300 300 301 303 305 307 308 310 311 311 311 310 310 312 314 314 314 313 311 311 310 309 308 307 306 305 303 301 300 299 299 298 298 296 295 295 294 294 294 294 294 294 294 294 294 295 295 295 295 294 294 294 294 295 294 294 294 294 294 293 293
298 298 298 298 298 298 299 299 299 299 299 299 299 298 298 298 299 301 303 306 308 309 310 311 310 310 312 313 313 313 312 311 310 309 308 307 306 304 302 301 300 299 299 298 297 296 295 294 294 294 294 294 294 294 294 294 294 294 294 294 294 294 294 294 294 294 295 294 294 294 294 293 293 293
298 298 298 298 298 298 298 298 298 298 298 299 299 299 298 298 298 299 301 305 307 309 310 311 311 310 312 313 313 312 311 311 310 308 307 306 304 302 301 300 299 299 298 297 296 295 294 294 294 294 294 293 294 294 294 294 293 294 294 294 293 294 294 294 294 294 295 295 294 294 293 293 293 293
298 298 297 297 297 297 297 297 298 298 298 299 299 299 299 299 299 299 301 304 307 309 310 311 311 311 312 312 312 311 311 310 309 306 304 303 302 301 300 299 299 298 297 296 295 294 294 294 294 294 294 294 294 294 293 293 293 293 293 293 293 293 293 294 294 294 295 295 294 293 293 293 293 293
297 297 297 297 297 297 297 297 297 298 298 299 300 301 301 301 301 301 301 304 306 309 311 311 311 311 312 312 311 310 309 308 306 304 302 301 300 300 299 299 298 296 295 294 294 294 293 294 294 294 294 293 293 293 293 293 293 293 293 293 293 293 293 293 294 294 294 294 293 293 293 293 293 293
297 297 297 298 298 298 298 298 299 299 299 300 301 301 302 302 302 302 302 303 306 309 310 310 310 310 311 311 310 308 307 306 304 302 302 301 299 299 298 298 296 295 294 293 293 293 293 293 294 294 294 293 293 293 293 293 293 293 293 293 293 293 293 293 293 294 294 293 293 293 293 292 292 292
297 297 298 298 299 299 300 300 300 300 300 300 301 301 302 302 302 301 301 302 305 308 310 310 309 309 309 309 308 306 305 304 303 301 300 299 299 298 297 296 294 293 293 293 293 293 293 294 294 293 293 293 293 293 293 293 293 293 292 292 293 293 293 293 293 293 293 293 293 293 292 292 292 292
297 298 298 299 299 300 300 300 300 300 300 300 300 301 301 301 301 301 300 301 303 306 308 308 308 307 307 306 305 303 301 301 300 300 299 299 298 297 295 294 293 292 292 293 293 293 294 293 293 293 293 294 294 294 293 293 293 293 293 293 293 293 293 293 293 293 293 293 293 292 292 292 292 291
298 298 298 298 299 299 299 299 299 300 300 299 300 300 300 300 300 300 300 301 303 305 306 307 306 306 305 304 303 302 300 298 298 298 298 297 296 295 293 293 292 292 293 293 293 293 293 293 293 293 294 294 294 294 294 293 293 293 293 293 293 293 293 293 293 293 293 293 293 292 292 292 291 291
298 298 298 298 298 299 299 299 299 299 299 299 299 299 300 300 300 300 301 301 303 304 305 305 305 304 304 303 301 300 298 297 297 297 297 295 294 293 292 292 292 292 293 293 293 293 293 293 293 293 293 294 294 294 294 293 293 293 293 293 293 293 293 293 293 293 293 292 292 292 291 291 291 290
299 299 299 299 299 299 299 299 299 299 299 298 299 299 299 300 300 301 300 300 301 302 303 303 303 302 302 300 298 297 297 297 297 297 295 294 292 292 292 292 292 292 292 292 292 292 292 292 292 292 293 293 293 293 293 292 292 293 293 293 293 293 293 292 292 293 292 292 292 291 291 291 290 290
299 299 299 298 298 298 298 299 299 298 298 299 299 299 299 300 300 300 300 299 300 300 300 300 300 299 298 298 297 297 298 297 297 295 293 292 291 291 291 292 292 292 292 292 292 292 292 292 292 292 292 292 292 292 292 293 293 292 293 293 293 292 293 293 293 293 292 292 292 292 291 291 290 290
298 298 297 297 297 297 297 298 298 299 299 299 299 299 300 300 299 299 299 298 297 298 298 297 297 297 297 297 297 297 297 296 294 293 291 291 291 291 291 291 291 292 292 292 292 292 292 292 291 291 291 291 292 292 293 293 293 293 293 293 292 292 293 293 293 293 293 292 292 292 291 291 290 290
298 297 297 296 297 297 297 298 299 299 299 299 299 299 298 298 298 298 297 296 296 296 297 296 296 297 296 295 295 294 294 294 292 291 290 290 290 290 290 291 291 291 292 292 292 292 292 291 291 291 291 291 292 292 293 293 293 293 293 292 292 293 293 293 293 293 293 292 291 291 291 291 290 290
298 297 297 297 297 297 298 298 299 299 299 299 299 298 297 297 297 297 296 295 295 296 296 296 295 295 294 293 293 293 292 292 291 290 290 290 290 290 290 291 291 291 292 292 292 291 291 291 291 291 292 292 292 293 293 293 293 293 293 293 293 293 294 293 293 293 293 292 291 290 290 290 290 290
298 298 297 297 297 298 298 298 298 299 299 298 298 297 296 296 296 296 295 295 296 296 295 295 294 294 293 293 292 291 291 290 290 290 290 290 290 290 290 290 290 291 291 291 291 291 291 291 291 292 292 292 292 293 293 293 293 293 293 293 293 294 293 293 294 293 293 292 291 290 290 290 290 290
297 297 297 297 297 298 297 297 297 297 297 297 296 296 296 296 296 296 295 295 295 295 294 294 294 293 292 291 291 290 289 289 290 290 290 290 290 290 290 290 290 290 291 291 291 291 291 292 291 292 292 292 292 293 293 293 293 293 293 293 293 293 293 293 293 293 293 292 291 290 290 291 290 290
Wind_Speed
10 10 10 13 13 11 11 11 10 9 8 6 5 5 3 5 12 14 11 10 10 9 9 9 8 9 11 11 10 9 8 7 7 6 6 6 7 6 6 7 8 9 9 10 11 11 12 14 16 17 18 18 19 20 21 22 23 23 23 22 22 21 20 20 19 18 17 16 15 14 14 14 14 14
9 9 10 12 13 12 11 12 11 10 8 6 6 6 4 2 7 12 13 12 12 10 9 9 9 9 10 11 10 10 9 8 7 7 7 7 6 5 4 5 6 7 8 9 10 11 13 15 16 17 18 20 21 21 22 23 24 25 25 24 23 22 22 22 22 22 21 19 18 17 15 15 14 14
7 7 8 11 12 12 11 12 13 11 8 8 8 7 6 4 5 9 12 11 11 11 9 9 9 9 10 10 10 10 9 8 7 7 7 6 6 4 2 2 3 5 7 8 10 11 13 15 16 17 18 19 21 22 23 24 25 26 26 25 24 23 23 23 23 23 23 23 22 21 19 18 17 16
8 7 7 8 10 11 12 13 14 12 9 9 10 8 7 6 7 8 8 7 8 10 9 9 8 9 10 11 10 10 10 9 8 6 6 6 6 5 2 1 3 5 7 8 10 11 13 14 15 16 18 19 20 21 23 24 25 26 26 26 25 24 24 24 25 24 24 24 24 24 23 22 22 20
10 9 8 8 9 10 11 13 14 12 10 10 10 9 8 8 7 6 6 5 7 8 8 8 8 8 9 10 11 11 11 10 8 7 6 5 5 5 4 4 5 6 7 9 10 12 13 14 15 16 17 18 19 21 22 23 25 26 26 26 25 25 25 26 26 25 24 24 24 24 24 24 24 24
10 9 8 6 7 9 10 12 13 13 12 11 11 9 9 8 7 6 6 5 6 7 7 7 7 8 9 10 11 11 11 11 9 8 7 6 6 6 6 7 8 8 9 10 10 11 13 14 14 15 16 18 19 20 22 23 24 25 26 26 25 25 25 26 25 24 24 23 24 24 25 25 25 25
9 8 8 6 6 7 8 10 13 13 13 12 11 10 9 8 7 7 7 7 7 7 7 6 8 9 9 11 12 11 11 12 11 10 10 9 9 9 8 9 10 11 11 12 11 12 13 14 15 16 17 18 19 20 21 22 24 25 26 26 26 25 25 25 25 24 23 23 23 24 25 26 26 25
7 6 6 5 5 5 5 7 11 13 13 12 11 11 10 9 8 8 9 10 10 10 9 7 8 9 10 11 13 13 13 13 13 13 13 12 12 12 11 12 13 13 13 14 13 13 14 15 16 17 17 19 19 20 21 22 24 25 26 26 26 26 26 25 24 24 23 23 23 24 24 25 25 25
6 6 5 5 5 6 5 6 8 11 12 11 10 10 10 10 9 9 11 12 13 13 12 10 9 10 11 13 14 14 14 15 15 15 14 14 14 14 14 15 16 16 16 16 15 15 16 17 17 17 18 19 20 21 22 23 24 25 27 27 27 26 26 25 24 23 23 23 23 23 24 24 24 24
7 7 6 6 6 7 6 6 7 8 9 9 9 8 8 9 9 10 11 13 14 14 14 13 12 11 12 14 15 16 16 16 16 16 16 16 16 16 17 17 18 18 18 18 17 17 18 18 19 19 19 20 21 22 22 23 25 26 27 27 26 26 25 24 24 23 22 22 22 22 23 23 24 24
8 8 9 8 8 8 8 7 7 7 7 6 6 6 7 8 8 9 10 11 13 14 15 15 15 14 13 14 15 17 17 18 18 19 19 19 19 18 19 20 20 20 20 20 19 19 20 20 20 20 20 21 21 22 23 24 26 27 27 27 26 26 25 24 23 22 22 22 22 22 23 23 24 24
8 9 11 11 10 10 10 9 8 7 7 6 6 7 8 8 8 8 8 9 10 11 12 13 14 15 15 15 16 17 18 19 20 20 20 21 21 20 20 22 22 22 22 21 21 21 22 22 21 21 21 21 22 22 23 25 26 27 27 27 27 26 25 24 23 22 22 22 23 23 24 24 24 24
8 8 10 11 11 11 10 10 9 9 8 8 8 8 8 8 8 8 8 9 9 10 11 13 14 16 17 17 17 18 18 19 20 20 20 21 22 21 22 23 23 23 23 23 23 23 23 23 22 22 22 22 22 23 24 26 27 27 27 27 27 26 24 23 22 22 22 23 23 23 24 24 24 24
7 7 8 9 10 10 10 10 9 9 9 9 9 9 9 9 9 9 10 11 11 11 13 13 14 16 18 19 18 19 19 19 20 21 21 22 24 23 23 25 24 24 24 25 25 25 24 23 22 22 22 22 22 23 25 27 28 27 27 27 26 25 24 23 22 22 22 23 23 23 23 23 23 23
7 7 8 8 9 9 9 10 10 10 10 10 11 11 11 10 10 10 11 12 13 14 15 16 17 18 19 20 19 20 20 20 21 22 23 25 25 25 25 26 26 25 24 25 26 26 25 24 23 22 22 21 22 24 25 26 27 27 27 27 26 25 24 23 22 22 22 23 23 23 23 22 22 21
8 9 9 9 9 10 10 11 11 12 12 13 13 12 12 12 12 12 12 12 13 14 15 17 18 18 19 20 20 20 20 20 21 22 24 26 27 27 27 27 27 26 25 24 26 26 25 24 23 22 22 22 23 25 26 27 27 26 26 26 25 24 23 23 23 23 23 23 23 22 22 21 20 19
11 11 11 11 11 12 12 13 13 14 14 14 15 15 14 14 14 13 13 13 13 14 15 16 17 18 18 19 20 20 20 20 22 23 24 25 25 26 26 27 27 27 25 24 25 26 25 23 22 22 22 23 24 26 27 27 27 27 27 26 24 24 24 24 24 24 24 24 23 22 21 20 19 18
12 12 13 13 13 14 14 14 14 14 15 15 16 17 17 17 16 16 16 15 15 16 16 17 18 18 18 19 20 21 21 22 24 25 25 25 24 24 24 25 26 25 25 25 25 24 25 23 21 22 24 24 25 26 26 26 26 26 25 24 23 23 24 24 24 24 24 23 23 22 21 20 19 17
13 13 14 14 15 15 15 15 16 16 16 17 17 18 19 19 19 19 19 18 18 19 19 20 21 21 21 21 22 23 24 25 26 26 26 26 26 27 28 28 28 26 26 27 25 23 24 23 20 22 24 24 24 25 26 26 26 25 23 22 22 23 23 23 24 23 23 22 22 21 21 20 18 17
15 15 16 17 17 18 18 18 19 19 20 20 20 20 21 21 21 21 21 21 22 22 23 23 24 25 25 24 25 26 27 26 26 25 26 27 27 28 30 31 31 29 27 27 25 23 24 23 20 21 24 23 23 24 26 26 24 22 21 21 22 22 23 22 22 22 22 22 21 21 20 19 18 18
19 19 20 20 21 21 21 22 23 23 24 24 24 24 25 25 25 25 25 25 26 26 26 27 27 28 27 27 28 29 29 29 27 27 28 30 28 27 28 31 31 29 27 27 25 23 23 22 20 21 23 23 22 23 25 24 22 19 20 21 21 22 22 22 22 21 21 21 20 20 19 18 18 18
22 23 23 24 24 25 25 26 26 27 27 27 28 28 29 29 29 29 29 30 30 30 30 30 30 29 29 29 30 30 30 31 30 29 30 30 27 26 27 29 29 27 27 27 24 22 22 22 21 21 22 23 23 22 21 21 20 19 20 20 21 21 21 21 21 21 20 19 19 18 18 17 17 16
22 22 23 24 24 25 26 27 28 28 29 29 29 30 31 32 33 32 32 32 32 31 31 30 29 29 28 28 29 30 29 30 29 28 28 28 26 24 24 26 27 26 26 25 23 21 22 22 21 21 19 19 21 21 19 17 18 19 19 20 20 21 22 21 20 19 18 17 17 17 16 16 16 15
23 24 24 24 24 24 25 26 27 28 28 28 29 29 31 32 32 32 32 32 31 30 30 28 28 29 28 27 27 27 27 28 27 26 26 26 23 21 22 23 24 25 25 24 21 20 21 20 20 20 18 17 18 19 18 17 18 18 18 19 20 21 22 21 18 16 15 16 16 16 16 16 16 16
29 30 30 30 29 29 28 28 28 28 28 29 29 30 31 31 31 30 30 31 30 29 28 27 27 28 28 26 25 25 25 25 26 26 25 23 20 19 20 22 24 25 25 22 20 20 20 19 19 19 19 18 17 17 16 16 18 19 19 18 19 21 21 17 12 11 12 13 14 15 15 15 15 15
34 34 35 36 36 36 36 35 34 33 32 32 32 32 31 31 31 31 30 31 30 30 30 28 27 27 27 26 25 25 24 25 25 24 23 21 19 19 20 21 23 23 22 21 20 19 18 18 18 18 18 17 16 16 16 15 17 19 19 18 20 20 17 12 8 7 9 10 11 13 15 15 14 14
37 38 38 38 39 39 40 40 40 40 39 38 37 36 34 32 32 33 33 33 33 33 33 31 29 28 27 27 26 25 25 26 25 23 22 20 20 20 20 21 22 21 20 20 19 18 17 17 18 16 15 14 15 15 16 15 16 17 17 18 19 16 10 8 7 7 8 9 9 12 12 11 12 14
36 38 39 39 39 40 40 41 42 42 42 42 41 40 38 35 34 35 36 36 36 35 35 35 33 32 30 28 27 26 27 26 25 23 22 22 22 22 22 21 21 20 20 19 18 17 17 17 16 13 12 13 14 15 15 15 15 15 16 16 15 10 6 6 6 6 8 8 7 8 8 8 10 13
34 36 36 37 38 38 38 38 39 40 41 41 41 41 40 38 36 36 36 37 37 37 37 37 36 35 32 29 27 27 27 27 26 24 24 24 24 24 24 22 21 20 19 18 17 17 17 15 13 11 12 13 14 15 15 14 13 14 15 14 11 8 6 6 6 6 7 7 6 6 7 8 11 13
32 33 33 34 35 36 36 35 36 37 37 38 39 39 39 38 37 36 35 36 37 38 37 37 37 35 33 29 27 28 29 29 28 26 25 26 26 26 23 21 20 19 18 17 17 16 15 12 10 11 12 14 15 14 13 12 11 11 11 9 8 7 5 5 6 7 7 8 7 7 7 7 10 12
28 29 30 31 32 34 34 34 34 34 34 35 35 35 36 36 35 34 33 34 35 36 35 36 36 36 32 29 28 30 32 31 29 26 26 26 27 25 22 20 19 17 17 16 15 13 11 10 11 11 13 13 13 11 10 9 9 8 7 6 6 6 5 6 6 6 8 10 9 7 7 7 8 9
24 25 26 27 28 29 31 32 32 32 31 31 31 31 31 31 31 32 31 32 32 33 33 33 34 34 31 29 31 34 35 32 29 27 27 27 26 24 22 20 17 16 15 14 12 10 10 10 11 12 13 12 10 8 7 7 6 5 5 5 5 5 5 5 5 6 9 11 8 7 7 8 8 10
22 22 22 23 23 24 25 27 27 27 27 27 27 27 27 27 28 29 31 31 31 31 33 34 35 34 32 32 35 37 36 32 30 30 30 28 25 23 21 18 16 14 13 11 10 10 10 11 12 11 11 10 9 8 6 5 4 4 4 4 4 4 4 4 5 7 9 9 8 9 9 7 8 12
20 20 20 20 20 20 21 21 22 23 23 24 24 25 25 26 26 27 30 32 31 31 32 34 35 35 35 35 37 38 36 34 33 33 30 27 24 21 18 16 14 12 10 9 10 10 11 11 10 8 7 7 7 6 4 2 3 4 4 4 4 4 3 3 4 7 7 7 8 11 9 6 7 11
18 18 19 19 18 18 19 20 20 20 21 23 24 24 25 25 25 25 27 29 31 32 32 31 33 35 36 36 37 39 38 38 37 34 29 25 22 19 17 15 13 11 9 9 10 11 10 7 4 4 3 3 3 3 3 3 3 3 3 3 3 3 3 3 5 6 6 7 9 11 9 6 6 9
16 16 18 19 18 18 19 20 21 22 22 23 24 24 24 24 24 25 25 25 27 31 32 30 30 33 35 35 35 37 38 38 36 33 29 25 21 18 16 14 11 9 9 10 10 9 7 4 2 3 3 3 3 3 3 5 5 4 3 4 4 3 2 3 4 5 5 7 9 9 9 8 6 7
15 16 17 19 19 18 19 21 22 23 23 22 22 22 21 21 21 21 21 21 22 27 29 29 28 30 33 33 34 36 35 32 29 27 24 21 18 16 14 12 10 10 10 10 8 6 4 3 2 2 2 2 3 3 3 4 6 7 6 5 4 3 1 2 3 4 6 9 8 8 8 8 5 6
16 18 19 20 20 20 20 20 21 21 21 20 18 18 18 18 16 16 16 16 17 20 24 25 26 29 32 33 34 34 31 26 21 19 16 14 14 13 13 11 10 10 9 8 6 4 4 4 3 2 2 3 2 3 3 2 3 6 7 5 3 1 2 3 3 5 7 9 8 7 8 7 6 9
17 19 21 22 22 21 19 19 18 17 17 18 17 17 16 15 13 14 15 16 15 17 20 23 25 28 31 33 34 32 27 22 17 15 13 12 13 13 12 11 10 9 8 6 5 4 4 3 2 2 2 3 3 2 2 2 2 5 6 2 3 4 4 5 5 6 6 7 6 6 6 7 9 11
17 18 20 21 20 18 17 16 16 15 16 16 16 16 15 14 13 15 17 18 16 17 19 22 24 27 31 33 31 27 22 18 15 13 13 14 13 13 11 10 10 9 8 6 5 4 3 3 3 2 2 2 2 2 1 0 1 2 2 3 6 5 5 6 7 7 6 6 6 6 6 6 7 8
17 18 18 17 17 16 15 14 14 15 15 14 13 13 12 12 14 16 16 14 14 15 17 20 25 29 30 28 24 21 19 17 15 14 14 14 13 12 10 10 9 9 9 8 6 4 3 3 2 1 2 2 1 1 2 2 2 0 0 3 5 5 4 4 6 8 8 8 7 5 6 7 6 6
17 17 17 15 15 15 14 13 14 15 15 12 11 11 10 10 12 12 9 8 12 15 19 23 26 26 23 20 18 16 16 14 13 14 14 13 12 10 8 8 8 9 8 7 5 4 2 1 2 3 2 2 1 1 2 2 1 2 3 3 3 3 4 4 5 7 9 8 7 6 7 7 6 7
16 16 15 13 12 13 13 13 14 14 13 11 9 8 8 9 8 6 9 15 19 22 24 25 25 22 20 18 16 14 13 11 10 12 12 10 8 7 7 7 7 7 6 5 5 3 1 2 3 2 1 0 1 1 2 2 3 4 5 3 2 4 5 6 7 9 9 8 8 9 9 8 7 9
17 16 14 11 10 10 11 12 12 11 10 9 7 5 6 7 9 13 17 20 22 23 22 22 21 19 18 16 15 13 12 10 9 11 11 8 6 6 6 6 6 6 6 5 5 3 2 1 1 1 0 1 1 1 2 3 4 4 4 2 2 4 5 6 7 8 7 7 8 9 9 9 9 10
18 18 16 12 9 9 9 10 9 7 5 4 3 4 7 11 13 15 16 17 17 18 18 18 17 16 15 14 13 12 11 10 10 11 9 7 6 5 5 5 6 6 5 5 5 4 2 1 1 1 1 2 3 4 4 4 4 4 2 1 1 1 3 4 5 5 4 5 7 8 8 8 9 10
Wind_Direction
202 204 200 194 189 180 173 169 164 168 169 165 172 179 177 165 166 165 164 166 164 155 151 154 157 157 156 159 161 163 167 169 164 156 151 146 134 116 98 91 81 69 57 47 40 37 38 38 33 30 28 26 24 23 22 21 20 19 17 14 12 8 6 3 1 359 356 353 350 346 343 338 333 329
203 206 202 195 188 183 176 169 165 163 158 151 155 160 151 156 176 172 163 162 166 164 161 164 170 169 166 170 174 176 181 181 174 165 163 163 155 134 102 89 71 53 42 33 26 21 23 25 23 20 19 17 16 14 14 14 14 14 13 11 8 5 2 358 356 354 352 351 351 350 348 344 338 334
193 194 196 194 190 186 180 171 168 164 155 152 152 155 155 141 156 166 161 162 170 169 165 167 174 175 176 181 184 187 190 190 183 176 177 182 184 176 130 76 38 23 18 14 10 7 12 16 13 10 10 9 8 6 6 7 8 8 8 7 5 2 358 355 352 349 347 347 347 348 347 346 344 341
158 157 164 177 182 183 181 174 170 165 158 161 162 164 173 160 147 155 159 163 173 173 169 171 176 180 183 188 191 195 199 199 196 193 194 199 202 202 208 305 335 348 353 353 352 353 0 5 3 1 0 360 359 359 359 0 2 3 3 2 0 358 354 351 348 346 344 343 343 343 343 343 343 343
136 134 137 153 166 172 176 174 172 168 164 168 170 174 189 188 174 172 173 169 175 181 183 182 185 189 191 194 198 201 205 208 209 209 211 213 210 216 240 279 302 320 331 335 338 342 348 351 350 350 350 351 351 351 352 353 356 358 358 357 355 353 349 346 345 342 340 340 339 338 338 339 340 341
134 127 122 132 154 168 175 175 175 174 172 174 179 185 198 205 206 211 212 203 192 195 202 201 203 205 203 205 210 211 211 214 216 218 225 230 231 239 254 271 287 299 310 318 325 329 333 335 336 337 339 341 342 343 345 347 350 353 353 352 350 347 344 342 340 338 337 336 335 334 334 335 336 337
140 135 128 124 139 161 175 183 185 185 184 186 190 195 200 209 223 236 243 241 229 218 219 219 220 222 218 214 217 218 215 216 218 219 225 233 240 250 261 269 278 287 295 304 311 314 317 320 322 325 328 331 333 335 338 341 345 348 348 346 344 342 340 338 336 335 333 333 332 331 330 331 332 332
143 140 140 138 143 154 169 186 190 192 193 195 200 206 208 216 230 240 247 251 249 242 238 237 237 237 232 226 223 220 217 218 221 223 227 233 241 251 259 266 271 277 285 293 298 301 303 307 311 315 319 322 325 328 332 336 339 342 342 341 339 337 336 334 333 331 331 330 329 327 327 326 326 326
160 160 160 159 160 167 178 183 185 190 196 200 207 212 216 225 237 246 250 252 254 251 243 241 250 249 240 235 232 225 221 222 224 227 230 235 242 249 256 262 267 272 277 282 287 290 293 297 301 306 311 315 318 322 327 331 334 336 337 336 334 333 331 330 329 328 327 327 326 325 323 322 322 322
184 183 180 175 172 176 182 180 182 190 195 201 210 217 226 238 247 254 256 255 256 255 246 242 250 253 246 241 238 233 228 227 229 232 236 240 243 247 253 259 264 268 273 277 280 283 286 290 294 299 304 308 312 317 322 326 329 331 331 330 329 327 326 325 324 324 325 325 325 324 322 321 321 320
191 191 184 178 178 180 178 175 178 187 194 206 221 234 241 248 254 260 260 257 257 256 251 248 248 249 249 245 242 240 236 233 235 238 241 244 247 249 252 257 262 265 270 273 276 278 281 285 289 293 298 303 307 313 318 322 324 325 325 325 323 322 322 321 321 322 323 324 324 322 322 320 318 317
174 181 183 182 185 188 189 191 195 204 214 224 231 238 242 246 256 260 257 256 255 252 249 245 241 244 249 250 248 246 240 238 241 246 247 248 253 256 256 258 262 265 267 268 270 274 277 280 284 289 293 299 304 309 314 318 319 320 320 320 319 319 319 319 320 322 323 324 323 322 320 319 317 315
165 171 183 189 195 199 204 211 217 223 229 230 231 235 240 246 254 257 256 255 253 248 244 241 240 245 250 252 253 252 250 250 253 256 255 251 254 260 260 261 264 265 266 265 266 269 272 275 279 284 288 295 301 306 311 314 315 316 316 316 316 316 317 318 320 322 323 323 322 321 319 318 316 315
182 181 188 196 202 207 212 216 222 228 234 240 246 250 253 255 255 254 255 256 256 255 253 251 252 254 257 260 261 260 261 261 259 261 260 255 256 260 261 262 266 267 267 266 265 267 270 272 274 278 284 291 297 302 307 310 311 312 312 312 314 315 316 318 320 321 322 322 321 320 319 318 316 313
205 207 210 214 218 223 228 232 237 243 248 255 259 262 265 267 265 261 259 259 258 258 259 261 262 263 265 268 269 267 266 264 262 262 261 258 258 259 261 263 266 268 268 267 266 268 270 271 271 275 282 288 294 300 304 305 307 308 310 311 312 314 315 317 320 322 322 322 322 322 321 319 317 313
216 222 226 230 233 238 242 246 251 257 263 266 266 266 268 269 271 271 269 268 266 264 263 264 266 267 269 270 270 269 269 269 268 266 264 262 261 261 263 263 265 269 272 269 266 266 268 269 270 274 281 288 295 300 302 304 306 307 309 311 311 313 316 318 321 323 323 323 323 324 323 321 319 318
219 225 229 233 238 242 246 250 255 260 265 269 270 270 271 271 271 271 270 270 271 272 271 270 272 273 274 273 272 271 269 269 269 268 267 267 266 266 265 263 264 270 273 268 263 263 266 269 270 274 283 290 296 300 301 303 305 307 309 310 312 314 317 319 322 323 323 323 324 325 325 323 323 324
227 230 233 236 239 242 245 250 254 259 263 266 268 270 271 273 274 274 273 272 272 273 274 275 278 280 280 279 277 275 273 270 268 266 265 266 265 265 263 262 266 270 268 263 260 259 263 268 271 277 285 292 296 298 299 301 303 305 307 309 311 314 316 319 321 321 321 323 325 327 327 326 327 329
247 248 249 250 249 250 250 251 253 257 260 262 264 266 267 269 271 272 274 274 274 275 277 279 281 282 282 281 280 280 279 276 272 269 269 269 268 267 265 265 268 267 262 260 257 254 260 267 271 277 286 292 295 296 298 300 302 303 305 307 310 313 316 317 318 318 320 323 325 327 329 329 331 334
264 265 265 265 264 264 263 262 260 260 261 262 263 264 265 266 267 268 269 270 271 272 274 278 280 281 281 281 281 283 282 279 277 275 273 272 271 269 266 264 263 263 261 260 255 250 256 266 272 278 286 291 293 295 297 299 300 302 304 308 311 313 315 315 315 316 319 322 325 327 329 331 334 336
269 269 269 270 270 271 271 270 269 267 266 266 265 265 266 265 264 264 265 266 267 269 271 274 275 276 277 278 279 281 280 279 278 275 275 276 275 269 263 258 257 258 259 259 255 250 255 267 274 279 284 288 290 293 296 297 299 301 305 310 312 311 312 312 312 315 318 322 325 327 330 331 334 336
270 271 271 271 272 271 271 271 271 270 269 268 267 267 267 266 265 264 264 265 266 268 269 271 272 273 273 273 274 275 276 276 275 273 275 279 275 267 261 258 256 254 253 254 252 250 257 270 276 278 282 288 291 292 293 296 300 304 308 311 311 309 309 310 312 315 319 322 324 328 329 328 331 334
272 272 272 272 272 272 272 271 271 271 270 269 269 268 267 266 266 266 265 264 265 266 267 268 270 270 269 269 269 270 270 270 270 271 272 273 269 262 256 254 251 248 247 250 250 252 261 270 272 275 281 287 290 291 293 298 303 307 310 312 311 309 308 310 313 316 321 324 324 326 326 324 328 332
280 279 277 275 274 273 272 272 272 272 272 271 269 267 266 266 267 266 265 263 262 261 262 263 264 265 266 266 265 266 266 267 268 268 267 266 262 254 246 244 243 242 245 250 252 254 260 265 269 275 280 279 281 288 297 305 308 310 311 311 310 309 309 312 316 317 320 323 321 322 324 323 325 329
288 288 286 284 282 279 277 276 275 274 274 273 271 270 270 271 271 269 267 265 262 259 258 260 261 262 264 265 265 264 263 263 265 265 263 260 255 245 239 238 238 240 246 252 253 254 258 264 271 277 280 277 279 288 301 309 310 310 311 310 308 307 307 310 314 314 317 321 319 319 321 320 323 328
288 287 287 286 284 283 282 281 279 277 275 274 272 272 272 273 273 271 269 268 266 263 262 262 262 263 265 266 266 264 261 260 260 259 257 254 247 240 237 236 236 240 245 249 251 254 260 268 273 276 279 283 290 299 307 311 309 308 310 310 307 305 304 306 308 308 314 318 315 314 316 318 324 330
284 283 283 282 281 280 280 279 279 277 275 274 273 272 271 269 269 268 267 266 266 265 264 263 263 263 265 266 265 264 261 258 256 254 252 247 242 240 239 238 237 240 243 246 251 256 262 267 270 273 280 289 298 303 306 307 306 305 306 307 306 305 302 301 305 310 314 315 313 315 319 322 329 332
281 280 279 277 276 276 274 274 273 273 273 272 272 271 271 269 267 266 265 265 264 263 262 262 262 262 262 262 262 262 260 255 251 251 248 242 239 238 236 234 235 237 241 246 250 256 261 265 269 278 288 295 298 299 298 300 302 303 302 302 302 302 300 300 304 309 313 314 315 320 325 327 330 333
280 279 278 276 275 274 274 273 272 272 272 272 272 271 271 270 269 267 266 265 263 262 261 261 260 260 260 259 258 257 254 248 245 244 242 237 234 231 228 228 232 236 241 247 253 259 263 265 274 289 296 294 293 293 294 297 301 303 302 300 296 293 294 300 307 313 315 315 318 324 327 326 330 334
281 279 279 279 279 278 278 277 275 274 273 273 273 273 273 272 271 270 268 266 264 263 262 261 260 260 259 255 253 249 245 242 242 242 237 231 226 224 224 227 231 236 243 250 257 263 267 275 290 297 293 290 290 291 293 296 299 303 304 300 294 293 294 302 310 314 315 317 320 323 327 329 331 333
282 282 282 282 282 281 280 279 277 276 275 273 273 273 273 273 271 270 269 267 265 264 263 261 260 258 254 250 247 243 239 239 241 238 231 224 220 220 222 226 230 237 246 254 259 267 277 291 297 290 284 286 289 292 295 295 297 300 298 293 294 294 294 304 313 315 315 319 324 326 327 330 331 329
281 283 284 284 284 283 282 280 277 275 273 273 273 273 274 274 272 270 268 264 261 259 258 256 255 252 248 246 243 238 234 234 232 225 218 216 216 217 220 224 231 241 250 256 263 275 285 288 285 282 282 285 288 294 297 294 293 289 280 284 297 300 300 309 314 311 314 321 327 329 328 331 333 332
284 286 288 290 292 291 288 285 281 277 273 271 271 271 271 272 271 269 265 261 257 254 252 252 250 246 242 240 236 231 228 226 220 212 209 210 212 214 217 223 231 240 247 256 267 276 278 278 278 281 286 292 298 303 299 288 284 282 278 288 304 307 308 316 312 309 315 322 328 332 334 334 334 337
290 295 298 300 301 300 297 293 288 283 277 274 272 271 270 270 270 269 265 260 255 252 253 254 252 247 243 239 234 228 224 217 209 206 208 210 211 212 216 223 230 234 240 251 261 266 270 275 279 283 290 300 309 314 313 287 267 273 282 296 307 313 316 319 315 318 323 326 329 335 340 338 333 339
292 299 304 307 308 306 302 300 296 292 287 282 279 276 273 271 272 272 270 264 255 252 253 256 254 250 245 240 232 224 216 208 203 202 204 206 207 210 215 220 225 228 232 242 249 254 259 264 264 261 271 284 281 292 321 321 281 271 287 299 307 316 317 315 320 329 335 335 334 338 342 338 332 339
294 300 304 308 311 309 305 304 303 301 298 294 288 282 278 276 274 272 271 266 256 251 252 255 254 248 243 238 229 216 206 199 196 195 196 198 202 208 211 213 216 220 227 234 241 244 244 231 205 213 236 243 230 238 284 305 296 284 287 300 309 312 309 321 332 341 345 342 340 342 341 339 337 340
297 300 302 305 308 306 302 300 299 300 301 300 295 288 283 280 277 275 274 268 257 249 249 253 253 245 238 232 222 210 203 198 194 190 190 194 200 204 205 207 210 216 224 230 232 230 218 201 194 205 219 222 212 204 225 281 299 292 285 292 301 299 309 1 349 343 347 347 347 345 343 344 339 331
296 297 298 299 300 300 298 296 295 297 299 300 298 292 287 284 284 287 288 281 266 254 250 250 247 240 232 221 207 198 194 192 193 193 194 196 200 203 205 207 208 214 221 223 216 205 196 195 195 197 205 215 216 203 198 221 298 294 287 283 268 225 92 51 5 345 351 353 351 344 341 342 333 324
301 298 298 298 297 296 296 295 294 294 295 297 298 293 290 293 298 302 302 296 281 262 250 243 237 229 218 203 191 184 182 184 193 202 204 202 203 206 208 208 208 210 207 195 186 188 187 188 194 213 230 228 218 217 220 209 248 281 287 261 158 130 79 44 8 351 351 351 351 349 341 339 339 337
313 309 307 304 301 299 295 292 291 290 289 293 295 292 292 302 311 310 306 297 277 253 238 230 221 207 193 184 180 180 181 186 195 201 202 203 205 207 206 205 205 198 180 166 170 177 180 199 220 221 220 216 195 191 224 15 278 288 308 115 123 107 64 33 13 2 354 349 354 358 350 346 344 342
327 325 322 317 314 310 302 293 288 286 287 290 292 292 295 309 314 308 299 284 257 232 215 203 193 184 177 175 176 178 179 181 184 190 200 206 207 205 202 198 190 174 161 162 171 174 184 220 231 164 113 88 80 90 66 51 55 32 137 119 111 86 44 17 5 1 357 355 357 355 348 350 351 349
333 333 331 326 320 314 306 294 284 284 289 292 293 296 305 313 308 295 272 233 206 192 179 171 169 167 165 165 167 168 169 170 175 187 198 203 202 198 189 176 165 156 154 162 169 173 188 182 92 74 71 66 69 89 87 80 118 156 155 134 90 38 3 348 344 343 346 355 4 1 354 353 352 355
346 339 331 324 316 310 304 297 290 290 294 291 288 294 304 298 278 234 192 177 171 164 157 154 155 157 158 159 159 156 153 156 172 188 192 192 191 184 169 157 152 149 149 154 152 150 144 100 82 61 16 199 147 115 122 138 146 142 135 120 52 1 346 343 338 333 339 357 10 11 12 13 8 1
3 357 348 333 318 311 306 298 293 292 291 285 283 288 274 244 204 175 166 164 160 156 152 151 151 152 154 154 149 141 140 149 171 185 184 178 172 165 157 155 152 144 137 132 125 117 108 95 76 37 174 149 127 120 137 147 141 132 133 118 28 354 336 333 334 333 341 2 11 14 20 23 18 10
11 11 9 359 343 335 329 317 305 294 278 265 269 254 220 194 172 157 152 150 146 143 141 140 138 137 137 137 134 133 139 153 168 176 175 167 157 150 145 147 151 148 137 122 110 104 102 89 52 51 98 108 108 113 123 131 132 133 142 142 26 339 314 318 328 331 335 351 2 11 15 10 11 13